Time,TemperatureF,DewpointF,PressureIn,WindDirection,WindDirectionDegrees,WindSpeedMPH,WindSpeedGustMPH,Humidity,HourlyPrecipIn,Conditions,Clouds,dailyrainin,SoftwareType,DateUTC
2013-04-29 00:00:00,63.0,57.0,29.94,South,180,23.0,-999.0,82,-99.99,,,-99.99,,2013-04-29 00:00:00,
2013-04-29 00:21:00,63.0,57.0,29.94,South,180,23.0,-999.0,82,-99.99,,,-99.99,,2013-04-29 00:21:00,
2013-04-29 00:32:00,63.0,57.0,29.94,South,180,23.0,-999.0,82,-99.99,,,-99.99,,2013-04-29 00:32:00,
2013-04-29 00:41:00,63.0,57.0,29.94,South,180,23.0,-999.0,82,-99.99,,,-99.99,,2013-04-29 00:41:00,
2013-04-29 00:52:00,63.0,57.0,29.94,South,180,23.0,-999.0,82,-99.99,,,-99.99,,2013-04-29 00:52:00,
2013-04-29 01:00:00,63.0,57.0,29.94,South,180,18.0,-999.0,82,-99.99,,,-99.99,,2013-04-29 01:00:00,
2013-04-29 01:21:00,63.0,57.0,29.94,South,180,18.0,-999.0,82,-99.99,,,-99.99,,2013-04-29 01:21:00,
2013-04-29 01:31:00,63.0,57.0,29.94,South,180,18.0,-999.0,82,-99.99,,,-99.99,,2013-04-29 01:31:00,
2013-04-29 01:41:00,63.0,57.0,29.94,South,180,18.0,-999.0,82,-99.99,,,-99.99,,2013-04-29 01:41:00,
2013-04-29 01:52:00,63.0,57.0,29.94,South,180,18.0,-999.0,82,-99.99,,,-99.99,,2013-04-29 01:52:00,
2013-04-29 02:00:00,63.0,57.0,29.94,South,180,20.0,-999.0,82,-99.99,,,-99.99,,2013-04-29 02:00:00,
2013-04-29 02:21:00,63.0,57.0,29.94,South,180,20.0,-999.0,82,-99.99,,,-99.99,,2013-04-29 02:21:00,
2013-04-29 02:31:00,63.0,57.0,29.94,South,180,20.0,-999.0,82,-99.99,,,-99.99,,2013-04-29 02:31:00,
2013-04-29 02:41:00,63.0,57.0,29.94,South,180,20.0,-999.0,82,-99.99,,,-99.99,,2013-04-29 02:41:00,
2013-04-29 02:51:00,63.0,57.0,29.94,South,180,20.0,-999.0,82,-99.99,,,-99.99,,2013-04-29 02:51:00,
2013-04-29 03:00:00,65.0,59.0,29.93,South,180,15.0,-999.0,80,-99.99,,,-99.99,,2013-04-29 03:00:00,
2013-04-29 03:11:00,65.0,59.0,29.93,South,180,15.0,-999.0,80,-99.99,,,-99.99,,2013-04-29 03:11:00,
2013-04-29 03:21:00,65.0,59.0,29.93,South,180,15.0,-999.0,80,-99.99,,,-99.99,,2013-04-29 03:21:00,
2013-04-29 03:32:00,65.0,59.0,29.93,South,180,15.0,-999.0,80,-99.99,,,-99.99,,2013-04-29 03:32:00,
2013-04-29 03:42:00,65.0,59.0,29.93,South,180,15.0,-999.0,80,-99.99,,,-99.99,,2013-04-29 03:42:00,
2013-04-29 03:52:00,65.0,59.0,29.93,South,180,15.0,-999.0,80,-99.99,,,-99.99,,2013-04-29 03:52:00,
2013-04-29 04:00:00,65.0,57.0,29.91,South,180,10.0,-999.0,75,-99.99,,,-99.99,,2013-04-29 04:00:00,
2013-04-29 04:22:00,65.0,57.0,29.91,South,180,10.0,-999.0,75,-99.99,,,-99.99,,2013-04-29 04:22:00,
2013-04-29 04:32:00,65.0,57.0,29.91,South,180,10.0,-999.0,75,-99.99,,,-99.99,,2013-04-29 04:32:00,
2013-04-29 04:43:00,65.0,57.0,29.91,South,180,10.0,-999.0,75,-99.99,,,-99.99,,2013-04-29 04:43:00,
2013-04-29 04:52:00,65.0,57.0,29.91,South,180,10.0,-999.0,75,-99.99,,,-99.99,,2013-04-29 04:52:00,
2013-04-29 05:00:00,65.0,57.0,29.91,SE,140,10.0,-999.0,75,-99.99,,,-99.99,,2013-04-29 05:00:00,
2013-04-29 05:22:00,65.0,57.0,29.91,SE,140,10.0,-999.0,75,-99.99,,,-99.99,,2013-04-29 05:22:00,
2013-04-29 05:32:00,65.0,57.0,29.91,SE,140,10.0,-999.0,75,-99.99,,,-99.99,,2013-04-29 05:32:00,
2013-04-29 05:42:00,65.0,57.0,29.91,SE,140,10.0,-999.0,75,-99.99,,,-99.99,,2013-04-29 05:42:00,
2013-04-29 05:52:00,65.0,57.0,29.91,SE,140,10.0,-999.0,75,-99.99,,,-99.99,,2013-04-29 05:52:00,
2013-04-29 06:00:00,65.0,57.0,29.89,SW,230,15.0,-999.0,75,-99.99,,,-99.99,,2013-04-29 06:00:00,
2013-04-29 06:21:00,65.0,57.0,29.89,SW,230,15.0,-999.0,75,-99.99,,,-99.99,,2013-04-29 06:21:00,
2013-04-29 06:32:00,65.0,57.0,29.89,SW,230,15.0,-999.0,75,-99.99,,,-99.99,,2013-04-29 06:32:00,
2013-04-29 06:41:00,65.0,57.0,29.89,SW,230,15.0,-999.0,75,-99.99,,,-99.99,,2013-04-29 06:41:00,
2013-04-29 06:51:00,65.0,57.0,29.89,SW,230,15.0,-999.0,75,-99.99,,,-99.99,,2013-04-29 06:51:00,
2013-04-29 08:00:00,65.0,57.0,29.88,WNW,290,22.0,-999.0,75,-99.99,,,-99.99,,2013-04-29 08:00:00,
2013-04-29 08:31:00,65.0,57.0,29.88,WNW,290,22.0,-999.0,75,-99.99,,,-99.99,,2013-04-29 08:31:00,
2013-04-29 08:41:00,65.0,57.0,29.88,WNW,290,22.0,-999.0,75,-99.99,,,-99.99,,2013-04-29 08:41:00,
2013-04-29 08:51:00,65.0,57.0,29.88,WNW,290,22.0,-999.0,75,-99.99,,,-99.99,,2013-04-29 08:51:00,
2013-04-29 10:00:00,63.0,54.0,29.94,WNW,290,22.0,-999.0,72,-99.99,,,-99.99,,2013-04-29 10:00:00,
2013-04-29 10:41:00,63.0,54.0,29.94,WNW,290,22.0,-999.0,72,-99.99,,,-99.99,,2013-04-29 10:41:00,
2013-04-29 10:52:00,63.0,54.0,29.94,WNW,290,22.0,-999.0,72,-99.99,,,-99.99,,2013-04-29 10:52:00,
2013-04-29 11:00:00,63.0,54.0,29.96,West,280,22.0,-999.0,70,-99.99,,,-99.99,,2013-04-29 11:00:00,
2013-04-29 11:11:00,63.0,54.0,29.96,West,280,22.0,-999.0,70,-99.99,,,-99.99,,2013-04-29 11:11:00,
2013-04-29 11:21:00,63.0,54.0,29.96,West,280,22.0,-999.0,70,-99.99,,,-99.99,,2013-04-29 11:21:00,
2013-04-29 11:31:00,63.0,54.0,29.96,West,280,22.0,-999.0,70,-99.99,,,-99.99,,2013-04-29 11:31:00,
2013-04-29 11:41:00,63.0,54.0,29.96,West,280,22.0,-999.0,70,-99.99,,,-99.99,,2013-04-29 11:41:00,
2013-04-29 11:52:00,63.0,54.0,29.96,West,280,22.0,-999.0,70,-99.99,,,-99.99,,2013-04-29 11:52:00,
2013-04-29 12:00:00,64.0,52.0,29.98,NW,310,25.0,-999.0,63,-99.99,,,-99.99,,2013-04-29 12:00:00,
2013-04-29 12:21:00,64.0,52.0,29.98,NW,310,25.0,-999.0,63,-99.99,,,-99.99,,2013-04-29 12:21:00,
2013-04-29 12:31:00,64.0,52.0,29.98,NW,310,25.0,-999.0,63,-99.99,,,-99.99,,2013-04-29 12:31:00,
2013-04-29 12:41:00,64.0,52.0,29.98,NW,310,25.0,-999.0,63,-99.99,,,-99.99,,2013-04-29 12:41:00,
2013-04-29 12:51:00,64.0,52.0,29.98,NW,310,25.0,-999.0,63,-99.99,,,-99.99,,2013-04-29 12:51:00,
2013-04-29 13:00:00,64.0,52.0,29.99,NW,310,25.0,-999.0,63,-99.99,,,-99.99,,2013-04-29 13:00:00,
2013-04-29 13:21:00,64.0,52.0,29.99,NW,310,25.0,-999.0,63,-99.99,,,-99.99,,2013-04-29 13:21:00,
2013-04-29 13:31:00,64.0,52.0,29.99,NW,310,25.0,-999.0,63,-99.99,,,-99.99,,2013-04-29 13:31:00,
2013-04-29 13:41:00,64.0,52.0,29.99,NW,310,25.0,-999.0,63,-99.99,,,-99.99,,2013-04-29 13:41:00,
2013-04-29 13:51:00,64.0,52.0,29.99,NW,310,25.0,-999.0,63,-99.99,,,-99.99,,2013-04-29 13:51:00,
2013-04-29 14:00:00,64.0,52.0,30.00,NW,310,25.0,-999.0,63,-99.99,,,-99.99,,2013-04-29 14:00:00,
2013-04-29 14:21:00,64.0,52.0,30.00,NW,310,25.0,-999.0,63,-99.99,,,-99.99,,2013-04-29 14:21:00,
2013-04-29 14:31:00,64.0,52.0,30.00,NW,310,25.0,-999.0,63,-99.99,,,-99.99,,2013-04-29 14:31:00,
2013-04-29 14:41:00,64.0,52.0,30.00,NW,310,25.0,-999.0,63,-99.99,,,-99.99,,2013-04-29 14:41:00,
2013-04-29 14:51:00,64.0,52.0,30.00,NW,310,25.0,-999.0,63,-99.99,,,-99.99,,2013-04-29 14:51:00,
2013-04-29 16:00:00,66.0,46.0,30.04,NW,320,22.0,-999.0,48,-99.99,,,-99.99,,2013-04-29 16:00:00,
2013-04-29 16:12:00,66.0,46.0,30.04,NW,320,22.0,-999.0,48,-99.99,,,-99.99,,2013-04-29 16:12:00,
2013-04-29 16:23:00,66.0,46.0,30.04,NW,320,22.0,-999.0,48,-99.99,,,-99.99,,2013-04-29 16:23:00,
2013-04-29 16:32:00,66.0,46.0,30.04,NW,320,22.0,-999.0,48,-99.99,,,-99.99,,2013-04-29 16:32:00,
2013-04-29 16:42:00,66.0,46.0,30.04,NW,320,22.0,-999.0,48,-99.99,,,-99.99,,2013-04-29 16:42:00,
2013-04-29 16:52:00,66.0,46.0,30.04,NW,320,22.0,-999.0,48,-99.99,,,-99.99,,2013-04-29 16:52:00,
2013-04-29 17:00:00,65.0,50.0,30.04,NW,320,22.0,-999.0,57,-99.99,,,-99.99,,2013-04-29 17:00:00,
2013-04-29 17:22:00,65.0,50.0,30.04,NW,320,22.0,-999.0,57,-99.99,,,-99.99,,2013-04-29 17:22:00,
2013-04-29 17:31:00,65.0,50.0,30.04,NW,320,22.0,-999.0,57,-99.99,,,-99.99,,2013-04-29 17:31:00,
2013-04-29 17:42:00,65.0,50.0,30.04,NW,320,22.0,-999.0,57,-99.99,,,-99.99,,2013-04-29 17:42:00,
2013-04-29 17:52:00,65.0,50.0,30.04,NW,320,22.0,-999.0,57,-99.99,,,-99.99,,2013-04-29 17:52:00,
2013-04-29 18:00:00,64.0,50.0,30.04,NNW,330,22.0,-999.0,59,-99.99,,,-99.99,,2013-04-29 18:00:00,
2013-04-29 18:22:00,64.0,50.0,30.04,NNW,330,22.0,-999.0,59,-99.99,,,-99.99,,2013-04-29 18:22:00,
2013-04-29 18:31:00,64.0,50.0,30.04,NNW,330,22.0,-999.0,59,-99.99,,,-99.99,,2013-04-29 18:31:00,
2013-04-29 18:41:00,64.0,50.0,30.04,NNW,330,22.0,-999.0,59,-99.99,,,-99.99,,2013-04-29 18:41:00,
2013-04-29 18:51:00,64.0,50.0,30.04,NNW,330,22.0,-999.0,59,-99.99,,,-99.99,,2013-04-29 18:51:00,
2013-04-29 19:00:00,64.0,50.0,30.04,NNW,330,22.0,-999.0,59,-99.99,,,-99.99,,2013-04-29 19:00:00,
2013-04-29 19:11:00,64.0,50.0,30.04,NNW,330,22.0,-999.0,59,-99.99,,,-99.99,,2013-04-29 19:11:00,
2013-04-29 19:21:00,64.0,50.0,30.04,NNW,330,22.0,-999.0,59,-99.99,,,-99.99,,2013-04-29 19:21:00,
2013-04-29 19:31:00,64.0,50.0,30.04,NNW,330,22.0,-999.0,59,-99.99,,,-99.99,,2013-04-29 19:31:00,
2013-04-29 19:41:00,64.0,50.0,30.04,NNW,330,22.0,-999.0,59,-99.99,,,-99.99,,2013-04-29 19:41:00,
2013-04-29 19:51:00,64.0,50.0,30.04,NNW,330,22.0,-999.0,59,-99.99,,,-99.99,,2013-04-29 19:51:00,
2013-04-29 21:00:00,63.0,50.0,30.06,NE,50,22.0,-999.0,63,-99.99,,,-99.99,,2013-04-29 21:00:00,
2013-04-29 21:42:00,63.0,50.0,30.06,NE,50,22.0,-999.0,63,-99.99,,,-99.99,,2013-04-29 21:42:00,
2013-04-29 21:53:00,63.0,50.0,30.06,NE,50,22.0,-999.0,63,-99.99,,,-99.99,,2013-04-29 21:53:00,
2013-04-29 22:00:00,63.0,50.0,30.03,NW,320,22.0,-999.0,63,-99.99,,,-99.99,,2013-04-29 22:00:00,
2013-04-29 22:42:00,63.0,50.0,30.03,NW,320,22.0,-999.0,63,-99.99,,,-99.99,,2013-04-29 22:42:00,
2013-04-29 22:52:00,63.0,50.0,30.03,NW,320,22.0,-999.0,63,-99.99,,,-99.99,,2013-04-29 22:52:00,